This demonstration page uses our WeatherBlox Daily Observations layout. Learn more.

39.92423, -83.80882

Hourly Observations for September 9, 2016

Temp ( °F °C ) Dew Point ( °F °C ) Humidity (%) Winds ( mph kmh ) Pressure ( in mb ) Visibility ( mi km ) Precip ( " mm )
12:36 am 00:36 Cloudy with Heavy Rain 70 21 70 21 100 100 SW 5 7 29.97 1015 8 12.87472 0.21 5.334
12:56 am 00:56 Cloudy with Rain 70 21.1 70 21.1 100 100 WSW 6 9 29.97 1015 9 14.48406 0.3 7.62
1:56 am 01:56 Mostly Cloudy with Light Rain 70 21.1 70 21.1 100 100 Calm 29.94 1014 6 9.65604 0.11 2.794
2:19 am 02:19 Mostly Cloudy 70 21 70 21 100 100 SW 3 6 29.94 1014 8 12.87472 0 0.0254
2:56 am 02:56 Cloudy 70 21.1 70 21.1 100 100 Calm 29.94 1014 10 16.0934 0 0.0254
3:04 am 03:04 Mostly Cloudy 70 21 70 21 100 100 NNW 5 7 29.94 1014 10 16.0934 0 0
3:13 am 03:13 Mostly Cloudy 70 21 70 21 100 100 Calm 29.94 1014 8 12.87472 0 0
3:21 am 03:21 Mostly Cloudy 70 21 70 21 100 100 Calm 29.94 1014 7 11.26538 0 0
3:56 am 03:56 Cloudy with Mist and Fog 70 21.1 70 21.1 100 100 NW 3 6 29.95 1014 5 8.0467 0 0
4:11 am 04:11 Cloudy with Mist and Fog 70 21 70 21 100 100 Calm 29.94 1014 1.75 2.816345 0 0
4:24 am 04:24 Cloudy with Mist and Fog 70 21 70 21 100 100 Calm 29.94 1014 3 4.82802 0 0
4:56 am 04:56 Cloudy with Mist and Fog 70 21.1 70 21.1 100 100 Calm 29.96 1014 4 6.43736 0 0
5:13 am 05:13 Cloudy with Mist and Fog 70 21 70 21 100 100 Calm 29.97 1015 2 3.21868 0 0
5:20 am 05:20 Cloudy with Mist and Fog 70 21 70 21 100 100 Calm 29.97 1015 1 1.60934 0 0
5:26 am 05:26 Cloudy with Fog 70 21 70 21 100 100 Calm 29.97 1015 0.5 0.80467 0 0
5:56 am 05:56 Cloudy with Fog 70 21.1 70 21.1 100 100 Calm 29.96 1015 0.5 0.80467 0 0
6:03 am 06:03 Cloudy with Mist and Fog 70 21 70 21 100 100 Calm 29.97 1015 1 1.60934 0 0
6:32 am 06:32 Cloudy with Mist and Fog 70 21 70 21 100 100 Calm 29.97 1015 1.25 2.011675 0 0.0254
6:36 am 06:36 Cloudy with Mist and Fog 70 21 70 21 100 100 Calm 29.97 1015 0.75 1.207005 0 0.0254
6:53 am 06:53 Cloudy with Mist and Fog 70 21 70 21 100 100 Calm 29.97 1015 1.25 2.011675 0 0.0254
6:56 am 06:56 Cloudy with Mist and Fog 70 21.1 70 21.1 100 100 Calm 29.97 1015 1.25 2.011675 0 0.0254
7:09 am 07:09 Cloudy with Mist and Fog 70 21 70 21 100 100 Calm 29.97 1015 1 1.60934 0 0
7:13 am 07:13 Cloudy with Mist and Fog 70 21 70 21 100 100 Calm 29.97 1015 2 3.21868 0 0
7:21 am 07:21 Cloudy 70 21 70 21 100 100 Calm 29.97 1015 7 11.26538 0 0
7:29 am 07:29 Cloudy 70 21 70 21 100 100 Calm 29.97 1015 7 11.26538 0 0
7:37 am 07:37 Cloudy 70 21 70 21 100 100 Calm 29.97 1015 7 11.26538 0 0
7:49 am 07:49 Cloudy 70 21 70 21 100 100 Calm 29.97 1015 9 14.48406 0 0
7:56 am 07:56 Cloudy 70 21.1 70 21.1 100 100 Calm 29.98 1015 7 11.26538 0 0
8:09 am 08:09 Cloudy 70 21 70 21 100 100 Calm 29.97 1015 7 11.26538 0 0
8:20 am 08:20 Cloudy 72 22 70 21 94 94 SSE 3 6 29.97 1015 7 11.26538 0 0
8:56 am 08:56 Cloudy 71 21.7 70 21.1 96 96 Calm 29.99 1016 9 14.48406 0 0
9:10 am 09:10 Cloudy 72 22 70 21 94 94 VRB 3 6 29.97 1015 10 16.0934 0 0
9:31 am 09:31 Cloudy 72 22 72 22 100 100 SW 3 6 30 1016 10 16.0934 0 0
9:44 am 09:44 Cloudy 72 22 70 21 94 94 SW 5 7 30 1016 10 16.0934 0 0
9:56 am 09:56 Cloudy 72 22.2 70 21.1 94 94 SW 5 7 30.01 1016 10 16.0934 0 0
10:28 am 10:28 Cloudy 73 23 72 22 94 94 SSW 5 7 30 1016 10 16.0934 0 0
10:41 am 10:41 Cloudy 73 23 72 22 94 94 W 3 6 30 1016 10 16.0934 0 0
10:56 am 10:56 Cloudy 74 23.3 71 21.7 91 91 Calm 30.01 1016 10 16.0934 0 0
11:04 am 11:04 Mostly Cloudy 75 24 72 22 89 89 Calm 30 1016 10 16.0934 0 0
11:56 am 11:56 Mostly Cloudy 79 26.1 71 21.7 77 77 VRB 3 6 29.99 1016 10 16.0934 0 0
12:18 pm 12:18 Partly Cloudy 77 25 70 21 79 79 Calm 30 1016 10 16.0934 0 0
12:56 pm 12:56 Mostly Cloudy 80 26.7 71 21.7 74 74 VRB 3 6 29.98 1015 10 16.0934 0 0
1:56 pm 13:56 Mostly Cloudy 80 26.7 70 21.1 71 71 Calm 29.98 1015 10 16.0934 0 0
2:03 pm 14:03 Mostly Cloudy 81 27 72 22 74 74 SW 6 9 29.94 1014 10 16.0934 0 0
2:10 pm 14:10 Partly Cloudy 81 27 72 22 74 74 Calm 29.94 1014 10 16.0934 0 0
2:56 pm 14:56 Mostly Sunny 80 26.7 70 21.1 71 71 VRB 6 9 29.96 1015 10 16.0934 0 0
3:56 pm 15:56 Partly Cloudy 81 27.2 71 21.7 72 72 SW 3 6 29.95 1014 10 16.0934 0 0
4:56 pm 16:56 Mostly Cloudy 81 27.2 70 21.1 69 69 SW 7 11 29.94 1014 10 16.0934 0 0
5:56 pm 17:56 Mostly Cloudy 82 27.8 71 21.7 69 69 SW 5 7 29.95 1014 10 16.0934 0 0
6:56 pm 18:56 Sunny 80 26.7 69 20.6 69 69 W 3 6 29.95 1014 10 16.0934 0 0
7:56 pm 19:56 Partly Cloudy 77 25 69 20.6 77 77 Calm 29.96 1015 10 16.0934 0 0
8:56 pm 20:56 Clear 73 22.8 68 20 84 84 Calm 29.97 1015 10 16.0934 0 0
9:56 pm 21:56 Partly Cloudy 74 23.3 70 21.1 88 88 S 6 9 29.97 1015 10 16.0934 0 0
10:56 pm 22:56 Mostly Clear 73 22.8 71 21.7 94 94 S 6 9 29.97 1015 10 16.0934 0 0
11:56 pm 23:56 Clear 73 22.8 71 21.7 94 94 S 6 9 29.94 1014 10 16.0934 0 0

Powered by AerisWeather